Location: LDNL
(36.4545°S, 141.6685°E)
Time: 21:54:58
(UTC+11:00)

Tiros 1 despin weight - All Passes

Search period start: 30 January 2023 00:00
Search period end: 09 February 2023 00:00
Orbit: 589 x 636 km, 48.2° (Epoch: 29 January)

Date Brightness Start Highest point End Pass type
(mag) Time Alt. Az. Time Alt. Az. Time Alt. Az.
30 Jan - 06:40:38 10° NW 06:45:02 58° NE 06:49:34 10° ESE daylight
30 Jan - 08:22:35 10° W 08:26:42 33° SSW 08:30:55 10° SE daylight
30 Jan - 10:05:54 10° SW 10:09:13 19° S 10:12:34 10° SE daylight
30 Jan - 11:47:53 10° SW 11:51:51 26° SSE 11:55:50 10° ESE daylight
30 Jan - 13:29:04 10° SW 13:33:47 88° SE 13:38:29 10° NE daylight
30 Jan - 15:11:58 10° W 15:14:45 16° NW 15:17:30 10° NNW daylight
31 Jan - 05:15:45 10° N 05:18:47 18° NE 05:21:52 10° E visible
31 Jan - 06:55:18 10° WNW 06:59:48 75° SSW 07:04:24 10° SE daylight
31 Jan - 08:38:05 10° WSW 08:41:49 24° SSW 08:45:37 10° SE daylight
31 Jan - 10:21:07 10° SW 10:24:29 19° S 10:27:52 10° SE daylight
31 Jan - 12:02:34 10° SW 12:06:56 37° SSE 12:11:18 10° E daylight
31 Jan - 13:43:58 10° WSW 13:48:30 49° NW 13:53:01 10° NNE daylight
01 Feb - 05:29:13 10° NNW 05:33:18 36° NE 05:37:28 10° ESE visible
01 Feb - 07:10:22 10° W 07:14:41 43° SSW 07:19:06 10° SE daylight
01 Feb - 08:53:37 10° SW 08:57:01 20° S 09:00:28 10° SE daylight
01 Feb - 10:36:03 10° SW 10:39:43 22° SSE 10:43:24 10° ESE daylight
01 Feb - 12:17:14 10° SW 12:21:52 60° SSE 12:26:30 10° ENE daylight
01 Feb - 13:59:14 10° WSW 14:03:05 25° NW 14:06:54 10° N daylight
02 Feb - 04:06:24 10° NE 04:07:11 10° NE 04:07:58 10° ENE visible
02 Feb - 05:43:29 10° NW 05:47:56 72° NE 05:52:30 10° ESE visible
02 Feb - 07:25:44 10° W 07:29:42 29° SSW 07:33:46 10° SE daylight
02 Feb - 09:09:00 10° SW 09:12:16 19° S 09:15:34 10° SE daylight
02 Feb - 10:50:47 10° SW 10:54:52 29° SSE 10:58:56 10° E daylight
02 Feb - 12:31:59 10° WSW 12:36:40 77° NW 12:41:21 10° NE daylight
02 Feb - 14:15:37 10° WNW 14:17:32 12° NW 14:19:26 10° NNW daylight
03 Feb - 04:18:09 10° N 04:21:36 22° NE 04:25:06 10° E visible
03 Feb - 05:58:16 10° WNW 06:02:43 63° SSW 06:07:16 10° SE visible
03 Feb - 07:41:15 10° WSW 07:44:50 22° SSW 07:48:29 10° SE daylight
03 Feb - 09:24:07 10° SW 09:27:31 20° S 09:30:57 10° SE daylight
03 Feb - 11:05:27 10° SW 11:09:53 42° SSE 11:14:20 10° E daylight
03 Feb - 12:46:58 10° WSW 12:51:20 40° NW 12:55:41 10° NNE daylight
04 Feb - 04:31:55 10° NNW 04:36:08 44° NE 04:40:27 10° ESE visible
04 Feb - 06:13:26 10° W 06:17:38 38° SSW 06:21:55 10° SE visible
04 Feb - 07:56:45 10° SW 08:00:03 19° S 08:03:22 10° SE daylight
04 Feb - 09:38:57 10° SW 09:42:42 24° SSE 09:46:29 10° ESE daylight
04 Feb - 11:20:07 10° SW 11:24:46 71° SSE 11:29:26 10° ENE daylight
04 Feb - 13:02:25 10° W 13:05:51 20° NW 13:09:17 10° N daylight
05 Feb - 03:07:49 10° NNE 03:09:56 13° NE 03:12:06 10° E visible
05 Feb - 04:46:21 10° NW 04:50:48 87° NE 04:55:22 10° SE visible
05 Feb - 06:28:51 10° WSW 06:32:41 26° SSW 06:36:34 10° SE daylight
05 Feb - 08:12:03 10° SW 08:15:17 19° S 08:18:33 10° SE daylight
05 Feb - 09:53:39 10° SW 09:57:48 32° SSE 10:01:59 10° E daylight
05 Feb - 11:34:54 10° WSW 11:39:30 64° NW 11:44:07 10° NE daylight
06 Feb - 03:20:39 10° NNW 03:24:24 27° NE 03:28:12 10° ESE visible
06 Feb - 05:01:14 10° WNW 05:05:37 53° SSW 05:10:05 10° SE visible
06 Feb - 06:44:22 10° WSW 06:47:49 21° S 06:51:19 10° SE daylight
06 Feb - 08:27:03 10° SW 08:30:30 20° S 08:34:00 10° ESE daylight
06 Feb - 10:08:16 10° SW 10:12:46 49° SSE 10:17:17 10° ENE daylight
06 Feb - 11:49:57 10° WSW 11:54:06 32° NW 11:58:15 10° NNE daylight
07 Feb - 03:34:38 10° NW 03:38:57 55° NE 03:43:22 10° ESE visible
07 Feb - 05:16:29 10° W 05:20:33 33° SSW 05:24:42 10° SE visible
07 Feb - 06:59:49 10° SW 07:03:02 19° S 07:06:17 10° SE daylight
07 Feb - 08:41:48 10° SW 08:45:39 25° SSE 08:49:31 10° ESE daylight
07 Feb - 10:22:57 10° SW 10:27:35 84° SSE 10:32:16 10° NE daylight
07 Feb - 12:05:41 10° W 12:08:35 16° NW 12:11:29 10° N daylight
08 Feb - 02:09:52 10° N 02:12:41 17° NE 02:15:31 10° E visible
08 Feb - 03:49:13 10° WNW 03:53:39 79° SW 03:58:11 10° SE visible
08 Feb - 05:31:56 10° WSW 05:35:37 24° SSW 05:39:21 10° SE visible
08 Feb - 07:15:01 10° SW 07:18:15 19° S 07:21:32 10° SE daylight
08 Feb - 08:56:27 10° SW 09:00:41 35° SSE 09:04:58 10° E daylight
08 Feb - 10:37:47 10° WSW 10:42:17 52° NW 10:46:47 10° NE daylight
